AXY735 SBBE-SBPJ

Flight info

Callsign AXY735
Flight time 1h 18m
Altitude 43000
Route LEMIS UZ26 ILNOM
Aircraft C750/M-SBDE3FGHRWXY/S

Departure

Time 2026-05-04 08:11
Airport Val de Cans/Júlio Cezar Ribeiro International Airport (SBBE)

Arrival

Time 2026-05-04 09:29
Airport Brigadeiro Lysias Rodrigues Airport (SBPJ)
Time Latitude Longitude Altitude Speed Heading
2026-05-04 08:02 -1.38813 -48.47883 48 ft 0 kts 277°
2026-05-04 08:08 -1.38786 -48.47856 52 ft 12 kts 61°
2026-05-04 08:08 -1.38702 -48.47796 51 ft 14 kts 353°
2026-05-04 08:10 -1.37970 -48.47663 124 ft 143 kts 47°
2026-05-04 08:11 -1.37268 -48.46947 691 ft 153 kts 49°
2026-05-04 08:11 -1.35656 -48.45039 1470 ft 209 kts 66°
2026-05-04 08:11 -1.35555 -48.43581 2271 ft 211 kts 98°
2026-05-04 08:12 -1.36230 -48.42298 3078 ft 220 kts 131°
2026-05-04 08:12 -1.37612 -48.41587 3864 ft 226 kts 165°
2026-05-04 08:12 -1.39171 -48.41404 4268 ft 242 kts 172°
2026-05-04 08:12 -1.40974 -48.41256 4221 ft 269 kts 173°
2026-05-04 08:13 -1.42847 -48.41097 4146 ft 271 kts 172°
2026-05-04 08:13 -1.44728 -48.40917 4046 ft 272 kts 172°
2026-05-04 08:13 -1.46609 -48.40737 4029 ft 271 kts 172°
2026-05-04 08:13 -1.48492 -48.40560 4030 ft 272 kts 172°
2026-05-04 08:14 -1.50381 -48.40384 4029 ft 273 kts 172°
2026-05-04 08:14 -1.52276 -48.40207 4027 ft 273 kts 172°
2026-05-04 08:14 -1.54166 -48.40030 4032 ft 273 kts 172°
2026-05-04 08:16 -1.67312 -48.38391 4022 ft 272 kts 168°
2026-05-04 08:16 -1.69175 -48.38069 4024 ft 272 kts 167°
2026-05-04 08:16 -1.71039 -48.37738 4020 ft 272 kts 167°
2026-05-04 08:17 -1.72904 -48.37413 4027 ft 272 kts 167°
2026-05-04 08:17 -1.74774 -48.37088 4032 ft 272 kts 167°
2026-05-04 08:17 -1.76641 -48.36764 4033 ft 272 kts 167°
2026-05-04 08:17 -1.78485 -48.36442 4028 ft 272 kts 167°
2026-05-04 08:19 -1.91725 -48.33942 9911 ft 286 kts 167°
2026-05-04 08:19 -1.93711 -48.33559 10518 ft 302 kts 167°
2026-05-04 08:20 -1.95869 -48.33143 10730 ft 329 kts 167°
2026-05-04 08:20 -1.98214 -48.32696 10917 ft 353 kts 167°
2026-05-04 08:20 -2.00637 -48.32263 11727 ft 354 kts 168°
2026-05-04 08:20 -2.03085 -48.31830 12435 ft 359 kts 167°
2026-05-04 08:21 -2.05583 -48.31504 13122 ft 364 kts 171°
2026-05-04 08:21 -2.08075 -48.31175 13839 ft 367 kts 169°
2026-05-04 08:21 -2.10624 -48.30820 14480 ft 371 kts 170°
2026-05-04 08:21 -2.13210 -48.30488 15128 ft 375 kts 171°
2026-05-04 08:22 -2.15814 -48.30165 15774 ft 378 kts 171°
2026-05-04 08:22 -2.18434 -48.29828 16447 ft 382 kts 171°
2026-05-04 08:24 -2.37486 -48.27366 21090 ft 408 kts 171°
2026-05-04 08:24 -2.40322 -48.27001 21743 ft 412 kts 171°
2026-05-04 08:24 -2.43181 -48.26632 22398 ft 416 kts 171°
2026-05-04 08:24 -2.46064 -48.26260 23043 ft 421 kts 171°
2026-05-04 08:25 -2.48984 -48.25884 23660 ft 425 kts 171°
2026-05-04 08:25 -2.51929 -48.25504 24189 ft 429 kts 171°
2026-05-04 08:25 -2.54912 -48.25119 24717 ft 433 kts 171°
2026-05-04 08:25 -2.57914 -48.24731 25233 ft 438 kts 172°
2026-05-04 08:26 -2.60953 -48.24339 25749 ft 442 kts 172°
2026-05-04 08:27 -2.83010 -48.21494 29346 ft 472 kts 172°
2026-05-04 08:28 -2.86281 -48.21093 29797 ft 476 kts 174°
2026-05-04 08:28 -2.89611 -48.21098 30186 ft 482 kts 184°
2026-05-04 08:28 -2.92909 -48.21527 30593 ft 485 kts 187°
2026-05-04 08:28 -2.96262 -48.22010 31008 ft 487 kts 187°
2026-05-04 08:29 -2.99608 -48.22478 31622 ft 485 kts 187°
2026-05-04 08:29 -3.02945 -48.22942 32167 ft 484 kts 188°
2026-05-04 08:29 -3.06287 -48.23416 32696 ft 484 kts 188°
2026-05-04 08:31 -3.29453 -48.26690 36595 ft 473 kts 189°
2026-05-04 08:33 -3.51877 -48.29860 40590 ft 458 kts 190°
2026-05-04 08:33 -3.55033 -48.30306 41124 ft 456 kts 190°
2026-05-04 08:35 -3.77132 -48.33433 43041 ft 476 kts 191°
2026-05-04 08:35 -3.80406 -48.33895 43046 ft 483 kts 191°
2026-05-04 08:35 -3.87147 -48.34849 43044 ft 494 kts 191°
2026-05-04 08:37 -4.07976 -48.37795 43048 ft 510 kts 190°
2026-05-04 08:37 -4.11499 -48.38292 43049 ft 510 kts 190°
2026-05-04 08:38 -4.18522 -48.39288 43048 ft 510 kts 190°
2026-05-04 08:38 -4.25561 -48.40284 43044 ft 510 kts 190°
2026-05-04 08:40 -4.53753 -48.43698 43044 ft 514 kts 181°
2026-05-04 08:41 -4.60898 -48.43513 43056 ft 511 kts 181°
2026-05-04 08:41 -4.67964 -48.43477 43059 ft 511 kts 181°
2026-05-04 08:42 -4.75088 -48.43344 43052 ft 511 kts 181°
2026-05-04 08:42 -4.82210 -48.43269 43052 ft 511 kts 181°
2026-05-04 08:43 -4.88129 -48.43180 43042 ft 511 kts 181°
2026-05-04 08:43 -4.95238 -48.43086 43042 ft 510 kts 181°
2026-05-04 08:44 -5.02343 -48.42990 43044 ft 510 kts 181°
2026-05-04 08:46 -5.30758 -48.42610 43039 ft 511 kts 181°
2026-05-04 08:46 -5.37833 -48.42515 43041 ft 511 kts 181°
2026-05-04 08:47 -5.44939 -48.42421 43042 ft 510 kts 181°
2026-05-04 08:47 -5.52029 -48.42326 43043 ft 510 kts 181°
2026-05-04 08:48 -5.59125 -48.42231 43045 ft 510 kts 181°
2026-05-04 08:48 -5.66219 -48.42136 43045 ft 510 kts 181°
2026-05-04 08:49 -5.73313 -48.42042 43048 ft 509 kts 181°
2026-05-04 08:50 -5.98058 -48.41712 43051 ft 509 kts 181°
2026-05-04 08:51 -6.05143 -48.41616 43049 ft 508 kts 181°
2026-05-04 08:51 -6.12177 -48.41523 43046 ft 508 kts 181°
2026-05-04 08:52 -6.19252 -48.41428 43054 ft 508 kts 181°
2026-05-04 08:52 -6.26335 -48.41334 43052 ft 509 kts 181°
2026-05-04 08:54 -6.54640 -48.40955 43049 ft 509 kts 181°
2026-05-04 08:55 -6.61768 -48.40861 43053 ft 512 kts 181°
2026-05-04 08:55 -6.68892 -48.40764 43054 ft 512 kts 181°
2026-05-04 09:01 -7.43553 -48.39766 43062 ft 510 kts 181°
2026-05-04 09:01 -7.50652 -48.39670 43062 ft 510 kts 181°
2026-05-04 09:02 -7.57717 -48.39575 43062 ft 510 kts 181°
2026-05-04 09:02 -7.64817 -48.39480 43060 ft 510 kts 181°
2026-05-04 09:03 -7.71912 -48.39385 43059 ft 508 kts 182°
2026-05-04 09:03 -7.78990 -48.39290 43062 ft 509 kts 182°
2026-05-04 09:04 -7.86079 -48.39194 43060 ft 509 kts 182°
2026-05-04 09:04 -7.93126 -48.39100 43060 ft 509 kts 182°
2026-05-04 09:05 -8.00135 -48.39003 42494 ft 491 kts 182°
2026-05-04 09:05 -8.03494 -48.38958 41864 ft 476 kts 182°
2026-05-04 09:05 -8.06759 -48.38915 41249 ft 463 kts 182°
2026-05-04 09:05 -8.09947 -48.38873 40646 ft 452 kts 182°
2026-05-04 09:06 -8.13074 -48.38831 40059 ft 445 kts 182°
2026-05-04 09:07 -8.35039 -48.38530 35861 ft 460 kts 182°
2026-05-04 09:08 -8.38246 -48.38486 35255 ft 463 kts 182°
2026-05-04 09:08 -8.41477 -48.38442 34640 ft 465 kts 182°
2026-05-04 09:08 -8.44725 -48.38395 34025 ft 467 kts 182°
2026-05-04 09:08 -8.47989 -48.38345 33368 ft 469 kts 181°
2026-05-04 09:09 -8.51252 -48.38296 32749 ft 471 kts 181°
2026-05-04 09:09 -8.54542 -48.38248 32130 ft 473 kts 181°
2026-05-04 09:09 -8.57793 -48.38201 31505 ft 474 kts 181°
2026-05-04 09:09 -8.61109 -48.38152 30879 ft 476 kts 181°
2026-05-04 09:10 -8.64419 -48.38157 30240 ft 475 kts 185°
2026-05-04 09:10 -8.67711 -48.38344 29579 ft 470 kts 185°
2026-05-04 09:10 -8.70965 -48.38507 28957 ft 465 kts 184°
2026-05-04 09:10 -8.74185 -48.38657 28347 ft 461 kts 184°
2026-05-04 09:11 -8.77383 -48.38821 27735 ft 458 kts 184°
2026-05-04 09:11 -8.80518 -48.38990 27145 ft 454 kts 184°
2026-05-04 09:11 -8.83662 -48.39153 26547 ft 451 kts 183°
2026-05-04 09:11 -8.86788 -48.39309 25949 ft 447 kts 182°
2026-05-04 09:12 -8.89885 -48.39466 25363 ft 444 kts 182°
2026-05-04 09:12 -8.92970 -48.39627 24779 ft 441 kts 182°
2026-05-04 09:14 -9.13886 -48.40700 20755 ft 420 kts 180°
2026-05-04 09:14 -9.16766 -48.40849 20210 ft 417 kts 180°
2026-05-04 09:14 -9.19659 -48.40997 19658 ft 415 kts 180°
2026-05-04 09:14 -9.22536 -48.41145 19115 ft 412 kts 180°
2026-05-04 09:15 -9.25393 -48.41292 18570 ft 410 kts 180°
2026-05-04 09:15 -9.28237 -48.41438 18000 ft 408 kts 180°
2026-05-04 09:15 -9.31059 -48.41583 17453 ft 404 kts 180°
2026-05-04 09:15 -9.33856 -48.41727 16921 ft 401 kts 180°
2026-05-04 09:17 -9.55466 -48.42839 12737 ft 375 kts 181°
2026-05-04 09:18 -9.58051 -48.42972 12229 ft 370 kts 181°
2026-05-04 09:18 -9.60606 -48.43103 11744 ft 366 kts 181°
2026-05-04 09:18 -9.63139 -48.43234 11264 ft 356 kts 181°
2026-05-04 09:18 -9.65527 -48.43362 10805 ft 333 kts 181°
2026-05-04 09:19 -9.67780 -48.43479 10376 ft 314 kts 181°
2026-05-04 09:19 -9.69911 -48.43587 9969 ft 300 kts 181°
2026-05-04 09:19 -9.71971 -48.43691 9557 ft 294 kts 181°
2026-05-04 09:19 -9.73981 -48.43795 9180 ft 292 kts 180°
2026-05-04 09:20 -9.76001 -48.43900 8795 ft 290 kts 180°
2026-05-04 09:20 -9.78041 -48.44005 8408 ft 289 kts 180°
2026-05-04 09:20 -9.80048 -48.44110 8022 ft 288 kts 180°
2026-05-04 09:20 -9.82004 -48.44385 7735 ft 286 kts 186°
2026-05-04 09:21 -9.83982 -48.44669 7483 ft 287 kts 184°
2026-05-04 09:21 -9.85967 -48.44933 7220 ft 287 kts 184°
2026-05-04 09:21 -9.87946 -48.45219 6953 ft 287 kts 185°
2026-05-04 09:21 -9.89918 -48.45511 6685 ft 286 kts 185°
2026-05-04 09:22 -9.91892 -48.45798 6412 ft 285 kts 184°
2026-05-04 09:22 -9.93855 -48.46079 6133 ft 284 kts 184°
2026-05-04 09:22 -9.95794 -48.46360 5866 ft 284 kts 184°
2026-05-04 09:22 -9.97750 -48.46643 5601 ft 284 kts 184°
2026-05-04 09:23 -9.99714 -48.46928 5340 ft 286 kts 184°
2026-05-04 09:23 -10.01678 -48.47212 5072 ft 285 kts 184°
2026-05-04 09:23 -10.03624 -48.47496 5000 ft 281 kts 184°
2026-05-04 09:23 -10.05576 -48.47776 5003 ft 283 kts 184°
2026-05-04 09:25 -10.19039 -48.49803 3558 ft 267 kts 154°
2026-05-04 09:25 -10.20457 -48.48803 3431 ft 230 kts 131°
2026-05-04 09:26 -10.21359 -48.47546 3144 ft 215 kts 119°
2026-05-04 09:26 -10.22179 -48.46293 2882 ft 206 kts 120°
2026-05-04 09:26 -10.22949 -48.45146 2637 ft 188 kts 120°
2026-05-04 09:26 -10.23658 -48.44070 2408 ft 180 kts 120°
2026-05-04 09:27 -10.24346 -48.43020 2181 ft 177 kts 121°
2026-05-04 09:27 -10.25001 -48.42025 1952 ft 156 kts 122°
2026-05-04 09:27 -10.25552 -48.41191 1758 ft 134 kts 122°
2026-05-04 09:27 -10.26057 -48.40420 1594 ft 129 kts 122°
2026-05-04 09:28 -10.26551 -48.39667 1440 ft 127 kts 123°
2026-05-04 09:28 -10.27041 -48.38922 1280 ft 126 kts 123°
2026-05-04 09:28 -10.27522 -48.38189 1116 ft 125 kts 123°
2026-05-04 09:28 -10.28003 -48.37459 954 ft 124 kts 124°
2026-05-04 09:29 -10.28479 -48.36732 791 ft 123 kts 123°
2026-05-04 09:29 -10.28919 -48.36051 741 ft 101 kts 123°
2026-05-04 09:29 -10.29246 -48.35558 755 ft 60 kts 123°
2026-05-04 09:29 -10.29377 -48.35357 759 ft 19 kts 123°
2026-05-04 09:30 -10.29459 -48.35231 764 ft 31 kts 123°
2026-05-04 09:30 -10.29596 -48.35021 768 ft 34 kts 123°
2026-05-04 09:30 -10.29716 -48.34833 771 ft 21 kts 111°
2026-05-04 09:30 -10.29757 -48.34751 773 ft 11 kts 218°
2026-05-04 09:31 -10.29723 -48.34839 771 ft 19 kts 303°
2026-05-04 09:31 -10.29650 -48.34952 770 ft 19 kts 303°
2026-05-04 09:31 -10.29574 -48.35070 767 ft 21 kts 304°
2026-05-04 09:31 -10.29466 -48.35234 764 ft 32 kts 303°
2026-05-04 09:32 -10.29385 -48.35357 758 ft 32 kts 303°
2026-05-04 09:32 -10.29319 -48.35528 755 ft 20 kts 230°
2026-05-04 09:34 -10.29469 -48.35672 754 ft 0 kts 213°